Vineland Station Rcs, Ontario

12:18 AM EST on December 04, 2016 (GMT -0500)
Vineland (AU8)

Weather History for CXVN - October, 2011

Change the Weather History Date:

Wednesday, October 12, 2011

  Actual Average (CYSN) Record (CYSN)
Temperature  
Mean Temperature 60 °F -  
Max Temperature 65 °F 58 °F 75 °F (2015)
Min Temperature 55 °F 44 °F 35 °F (2012)
Degree Days  
Heating Degree Days 5    
Growing Degree Days 10 (Base 50)    
Moisture  
Dew Point 58 °F    
Average Humidity 94    
Maximum Humidity 100    
Minimum Humidity 74    
Precipitation  
Precipitation 0.43 in - - ()
Sea Level Pressure  
Sea Level Pressure 29.94 in    
Wind  
Wind Speed 3 mph ()    
Max Wind Speed 9 mph    
Max Gust Speed -    
Averages and records for this station are not official NWS values.
T = Trace of Precipitation, MM = Missing Value Source: Averaged Metar Reports

Daily Weather History Graph

Daily Weather History Graph

Search for Another Location

Airport or City:

Trip Planner

Search our weather history database for the weather conditions in past years. The results will help you decide how hot, cold, wet, or windy it might be!

Date:

Astronomy

Oct. 12, 2011 Rise Set
Actual Time 7:27 AM EDT 6:40 PM EDT
Civil Twilight 6:58 AM EDT 7:08 PM EDT
Nautical Twilight 6:25 AM EDT 7:41 PM EDT
Astronomical Twilight 5:52 AM EDT 8:14 PM EDT
Moon 6:38 PM EDT (10/12) 8:03 AM EDT (10/12)
Length of Visible Light 12h 09m
Length of Day
11h 12m
Full, 100% of the Moon is Illuminated
Oct 12
Full
Oct 19
Last Quarter
Oct 26
New
Nov 2
First Quarter
Nov 10
Full

Hourly Weather History & Observations

Time (EDT) Temp. Dew Point Humidity Pressure Visibility Wind Dir Wind Speed Gust Speed Precip Events Conditions
12:00 AM 59.4 °F 58.6 °F 97% 30.04 in - West 2.3 mph - N/A   Unknown
1:00 AM 59.0 °F 58.3 °F 97% 30.02 in - West 1.2 mph - N/A   Unknown
2:00 AM 59 °F 58 °F 96% 30.02 in - West 1.2 mph - -  
2:00 AM 58.8 °F 58.1 °F 97% 30.02 in - West 1.2 mph - N/A   Unknown
3:00 AM 58.6 °F 57.9 °F 97% 30.01 in - West 1.2 mph - N/A   Unknown
4:00 AM 58.6 °F 57.9 °F 97% 30.00 in - SW 2.3 mph - N/A   Unknown
5:00 AM 58.5 °F 57.9 °F 98% 30.00 in - Calm Calm - N/A   Unknown
7:00 AM 58.3 °F 57.7 °F 98% 30.00 in - Calm Calm - N/A   Unknown
8:00 AM 58 °F 58 °F 100% 30.00 in - South 1.2 mph - -  
8:00 AM 58.5 °F 57.9 °F 98% 30.00 in - South 1.2 mph - N/A   Unknown
9:00 AM 60.3 °F 59.7 °F 98% 30.00 in - SE 1.2 mph - N/A   Unknown
10:00 AM 62.2 °F 61.5 °F 97% 30.01 in - SE 2.3 mph - N/A   Unknown
11:00 AM 63.0 °F 60.8 °F 93% 30.00 in - East 1.2 mph - N/A   Unknown
1:00 PM 64.4 °F 59.5 °F 84% 29.97 in - East 2.3 mph - N/A   Unknown
2:00 PM 65 °F 59 °F 74% 29.94 in - East 3.5 mph - -  
2:00 PM 64.9 °F 58.8 °F 81% 29.94 in - East 3.5 mph - N/A   Unknown
3:00 PM 63.5 °F 58.8 °F 85% 29.92 in - East 5.8 mph - N/A   Unknown
4:00 PM 60.8 °F 58.6 °F 93% 29.91 in - East 8.1 mph - 0.06 in   Unknown
5:00 PM 59.9 °F 57.7 °F 93% 29.88 in - East 6.9 mph - 0.08 in   Unknown
6:00 PM 58.8 °F 56.8 °F 93% 29.86 in - East 9.2 mph - 0.05 in   Unknown
7:00 PM 57.7 °F 55.9 °F 94% 29.86 in - ESE 8.1 mph - 0.13 in   Unknown
8:00 PM 57 °F 55 °F 92% 29.84 in - East 6.9 mph - -  
8:00 PM 56.7 °F 55.4 °F 96% 29.84 in - East 6.9 mph - 0.11 in   Unknown
9:00 PM 56.3 °F 55.2 °F 96% 29.82 in - ESE 6.9 mph - 0.12 in   Unknown
10:00 PM 55.8 °F 54.5 °F 96% 29.81 in - ESE 9.2 mph - 0.04 in   Unknown
11:00 PM 55.6 °F 54.0 °F 94% 29.79 in - ESE 5.8 mph - N/A   Unknown